Hailey, ID

5:44 PM MST on February 23, 2017 (GMT -0700)
Friedman Memorial

Weather History for KSUN - October, 2012

Change the Weather History Date:

Monday, October 22, 2012

  Actual Average Record
Temperature  
Mean Temperature 36 °F -  
Max Temperature 41 °F 54 °F 80 °F (2003)
Min Temperature 32 °F 30 °F 19 °F (1996)
Degree Days  
Heating Degree Days 28    
Moisture  
Dew Point 32 °F    
Average Humidity 83    
Maximum Humidity 100    
Minimum Humidity 70    
Precipitation  
Precipitation 0.00 in - - ()
Sea Level Pressure  
Sea Level Pressure 29.74 in    
Wind  
Wind Speed 8 mph (WNW)    
Max Wind Speed 18 mph    
Max Gust Speed -    
Visibility 8 miles    
Events Rain    
Averages and records for this station are not official NWS values.
T = Trace of Precipitation, MM = Missing Value Source: NWS Daily Summary

Daily Weather History Graph

Daily Weather History Graph

Search for Another Location

Airport or City:

Trip Planner

Search our weather history database for the weather conditions in past years. The results will help you decide how hot, cold, wet, or windy it might be!

Date:

Astronomy

Oct. 22, 2012 Rise Set
Actual Time 8:00 AM MDT 6:41 PM MDT
Civil Twilight 7:31 AM MDT 7:11 PM MDT
Nautical Twilight 6:58 AM MDT 7:44 PM MDT
Astronomical Twilight 6:24 AM MDT 8:17 PM MDT
Moon 3:03 PM MDT (10/22) 12:39 AM MDT (10/22)
Length of Visible Light 11h 39m
Length of Day
10h 41m
First Quarter, 57% of the Moon is Illuminated
Oct 22
First Quarter
Oct 29
Full
Nov 6
Last Quarter
Nov 13
New
Nov 20
First Quarter

Hourly Weather History & Observations

Time (MDT) Temp. Windchill Dew Point Humidity Pressure Visibility Wind Dir Wind Speed Gust Speed Precip Events Conditions
12:15 AM 39.2 °F 32.5 °F 30.2 °F 70% 29.82 in 10.0 mi NW 10.4 mph - N/A   Scattered Clouds
12:35 AM 37.4 °F 32.1 °F 30.2 °F 75% 29.82 in 10.0 mi WNW 6.9 mph - N/A   Clear
1:15 AM 37.4 °F 32.1 °F 30.2 °F 75% 29.82 in 10.0 mi WNW 6.9 mph - N/A   Clear
1:35 AM 37.4 °F 31.4 °F 30.2 °F 75% 29.82 in 10.0 mi NW 8.1 mph - N/A   Clear
1:55 AM 37.4 °F 30.8 °F 30.2 °F 75% 29.81 in 10.0 mi NW 9.2 mph - N/A   Clear
2:15 AM 37.4 °F 31.4 °F 30.2 °F 75% 29.81 in 10.0 mi NW 8.1 mph - N/A   Clear
2:35 AM 37.4 °F 30.8 °F 28.4 °F 70% 29.81 in 10.0 mi NW 9.2 mph - N/A   Clear
2:55 AM 35.6 °F 29.2 °F 28.4 °F 75% 29.81 in 10.0 mi NW 8.1 mph - N/A   Scattered Clouds
3:15 AM 35.6 °F 29.2 °F 30.2 °F 81% 29.80 in 10.0 mi NW 8.1 mph - N/A   Scattered Clouds
3:35 AM 37.4 °F 32.1 °F 28.4 °F 70% 29.80 in 10.0 mi NW 6.9 mph - N/A   Mostly Cloudy
4:35 AM 37.4 °F 31.4 °F 28.4 °F 70% 29.78 in 10.0 mi NNW 8.1 mph - N/A   Scattered Clouds
5:15 AM 35.6 °F 29.2 °F 28.4 °F 75% 29.78 in 10.0 mi WNW 8.1 mph - N/A   Mostly Cloudy
5:35 AM 35.6 °F 29.2 °F 28.4 °F 75% 29.76 in 10.0 mi NW 8.1 mph - N/A   Mostly Cloudy
5:55 AM 35.6 °F 29.2 °F 28.4 °F 75% 29.76 in 10.0 mi NW 8.1 mph - N/A   Mostly Cloudy
6:15 AM 35.6 °F 29.9 °F 28.4 °F 75% 29.75 in 10.0 mi NW 6.9 mph - N/A   Scattered Clouds
6:35 AM 35.6 °F 29.9 °F 28.4 °F 75% 29.73 in 10.0 mi NW 6.9 mph - N/A   Mostly Cloudy
7:47 AM 35.6 °F 29.9 °F 28.4 °F 75% 29.73 in 10.0 mi WNW 6.9 mph - N/A   Overcast
8:50 AM 35.6 °F 29.2 °F 28.4 °F 75% 29.71 in 10.0 mi NW 8.1 mph - N/A   Overcast
9:47 AM 37.4 °F 31.4 °F 28.4 °F 70% 29.69 in 10.0 mi NW 8.1 mph - N/A   Overcast
10:47 AM 37.4 °F 29.8 °F 32.0 °F 81% 29.69 in 5.0 mi WNW 11.5 mph - N/A Rain Light Rain
11:20 AM 35.6 °F 29.9 °F 35.6 °F 100% 29.67 in 3.0 mi WNW 6.9 mph - N/A   Overcast
11:47 AM 35.6 °F 30.7 °F 35.6 °F 100% 29.67 in 2.0 mi WNW 5.8 mph - N/A   Overcast
12:47 PM 35.6 °F 27.5 °F 35.6 °F 100% 29.67 in 1.5 mi SE 11.5 mph - N/A   Overcast
1:47 PM 37.4 °F 30.3 °F 35.6 °F 93% 29.66 in 2.0 mi SE 10.4 mph - N/A   Overcast
2:47 PM 37.4 °F 31.4 °F 37.4 °F 100% 29.65 in 3.0 mi South 8.1 mph - N/A Rain Light Rain
3:47 PM 37.4 °F 33.8 °F 37.4 °F 100% 29.65 in 3.0 mi SE 4.6 mph - N/A Rain Light Rain
4:50 PM 39.2 °F - 39.2 °F 100% 29.65 in 5.0 mi Calm Calm - N/A   Overcast
5:55 PM 41.0 °F - 35.6 °F 81% 29.65 in 7.0 mi Calm Calm - N/A   Overcast
6:47 PM 37.4 °F 27.5 °F 33.8 °F 87% 29.69 in 2.0 mi SSW 18.4 mph - N/A Rain Rain
7:55 PM 35.6 °F 31.7 °F 33.8 °F 93% 29.71 in 7.0 mi WSW 4.6 mph - N/A   Overcast
8:50 PM 35.6 °F 31.7 °F 35.6 °F 100% 29.72 in 7.0 mi ESE 4.6 mph - N/A   Overcast
9:47 PM 37.4 °F - 33.8 °F 87% 29.72 in 7.0 mi Calm Calm - N/A   Mostly Cloudy
11:15 PM 32.0 °F - 32.0 °F 100% 29.71 in 10.0 mi Calm Calm - N/A   Scattered Clouds
11:55 PM 32.0 °F 28.7 °F 32.0 °F 100% 29.75 in 10.0 mi SE 3.5 mph - N/A   Mostly Cloudy